Location: Charlotte
(35.2270°N, 80.8430°W)
Time: 02:58:16
(UTC-04:00)

Daily predictions for brighter satellites

Satellite Brightness Start Highest point End
(mag) Time Altitude Azimuth Time Altitude Azimuth Time Altitude Azimuth
ATLAS 5 CENTAUR R/B 4.3 00:28:42 10° NNW 00:31:12 24° N 00:31:12 24° N
USA 215 4.3 03:21:42 10° ENE 03:26:55 34° ESE 03:26:55 34° ESE
Cosmos 1980 Rocket 4.1 03:23:54 10° N 03:28:36 26° ENE 03:33:16 10° ESE
CZ-2D R/B 3.3 03:26:42 10° NNE 03:30:01 39° NNE 03:30:01 39° NNE
Cosmos 1697 Rocket 3.6 03:26:41 10° N 03:31:12 45° NNE 03:31:12 45° NNE
SL-16 R/B 3.0 03:34:38 53° NNW 03:34:38 53° NNW 03:39:17 10° NNW
Cosmos 2082 Rocket 3.2 03:35:02 42° N 03:35:02 42° N 03:38:44 10° NNE
Cosmos 1092 Rocket 4.4 03:27:47 10° N 03:32:42 57° N 03:32:42 57° N
Lacrosse 4 Rocket 4.0 03:32:22 10° N 03:33:36 17° N 03:33:36 17° N
ARIANE 5 R/B 3.4 03:39:51 10° NNE 03:43:38 48° NNE 03:43:38 48° NNE
Cosmos 1627 Rocket 4.4 03:54:00 10° N 04:00:24 88° E 04:00:25 88° E
ADEOS II 3.3 03:58:47 10° NNE 04:03:35 35° E 04:04:45 32° SE
H-II Stage 2 4.4 04:06:46 20° SE 04:06:46 20° SE 04:12:57 10° E
ADEOS 3.6 04:04:53 10° NNE 04:09:55 72° E 04:09:55 72° E
Cosmos 1833 Rocket 3.9 04:14:17 29° NW 04:14:17 29° NW 04:18:15 10° N
Resurs 1-4 Rocket 3.4 04:09:55 10° N 04:13:07 29° NW 04:13:07 29° NW
Cosmos 1634 Rocket 4.4 04:18:31 46° WNW 04:18:31 46° WNW 04:23:51 10° N
Cosmos 2058 Rocket 4.3 04:15:43 10° N 04:19:53 39° E 04:21:28 29° SE
Helios 1A Rocket 4.3 04:16:26 10° N 04:18:54 33° N 04:18:54 33° N
Lacrosse 5 rocket 3.4 04:21:36 20° NNW 04:21:36 20° NNW 04:23:54 10° NNE
Cosmos 1766 4.2 04:20:58 10° N 04:24:03 45° NE 04:24:03 45° NE
Cosmos 841 Rocket 4.3 04:25:09 36° SE 04:26:35 46° ESE 04:31:31 10° NNE
Cosmos 1606 Rocket 4.2 04:27:04 10° N 04:30:10 46° NNW 04:30:10 46° NNW
SL-8 R/B 3.7 04:31:58 73° SE 04:31:58 73° SE 04:36:20 10° SE
Cosmos 2360 4.1 04:26:35 10° NNW 04:32:18 89° WSW 04:36:46 17° SSE
Cosmos 2279 Rocket 3.9 04:32:47 57° WSW 04:33:35 62° W 04:39:47 10° N
Cosmos 2228 3.2 04:32:39 10° N 04:36:55 69° E 04:37:29 60° SE
Cosmos 1892 Rocket 3.8 04:40:00 57° NW 04:40:00 57° NW 04:43:49 10° N
Cosmos 2026 Rocket 4.4 04:41:09 10° NNW 04:47:03 41° W 04:47:23 41° W
Meteor 1-21 4.1 04:47:14 41° SSW 04:49:20 83° W 04:54:59 10° N
Cosmos 540 Rocket 4.5 04:47:00 18° SSE 04:50:24 42° ESE 04:55:13 10° NNE
ATLAS 3B R/B 2.8 04:47:02 33° SSW 04:50:33 80° ESE 04:57:35 10° NNE
NOSS 3-2 (A) 3.9 04:50:07 25° S 04:53:17 53° ESE 04:59:21 10° NE
Cosmos 1763 Rocket 3.5 04:53:31 49° WSW 04:54:40 63° WNW 04:59:57 10° N
Timation 2 Rocket 3.8 04:52:46 41° SW 04:55:01 77° WNW 05:01:01 10° NNE
Cosmos 1898 Rocket 3.6 05:00:25 10° NNW 05:05:28 53° WSW 05:09:18 17° S
Cosmos 1733 4.3 05:02:18 10° N 05:06:03 45° E 05:09:46 10° SSE
USA 215 3.5 05:04:19 10° NE 05:10:41 57° NW 05:14:17 27° WSW
CZ-2D R/B 4.3 05:10:37 10° NW 05:11:18 10° WNW 05:11:21 10° WNW
Cosmos 1980 Rocket 2.6 05:07:31 10° NW 05:12:37 37° WSW 05:15:16 24° SSW
Cosmos 1655 Rocket 4.5 05:07:23 10° NNW 05:13:12 39° W 05:16:05 26° SW
SEDSat Delta rocket 4.1 05:10:37 30° WSW 05:13:57 64° S 05:20:41 10° E
Okean O Rocket 3.2 05:10:37 10° NNE 05:14:33 32° E 05:18:26 10° SSE
Hubble Space Telescope 2.9 05:17:05 14° S 05:17:05 14° S 05:18:18 10° SSE
Cosmos 1937 Rocket 3.5 05:13:53 10° NNW 05:18:56 56° WSW 05:23:57 10° S
Cosmos 1470 3.6 05:16:55 10° N 05:20:49 53° E 05:24:41 10° SSE
Cosmos 2266 Rocket 3.9 05:15:55 10° NNW 05:21:57 68° W 05:28:03 10° S
SL-16 R/B 2.3 05:17:23 10° NNW 05:23:05 81° ENE 05:28:45 10° SSE
DNEPR-1 R/B 3.4 05:29:30 25° SW 05:31:51 69° WNW 05:36:16 10° NNE
Centaur D-1AR AC-39 4.2 05:33:38 12° SSW 05:35:42 13° S 05:37:54 10° SSE
Cosmos 990 Rocket 4.5 05:32:40 10° NW 05:37:22 36° W 05:42:03 10° SSW
Cosmos 2150 Rocket 4.2 05:33:26 10° NNW 05:38:44 52° WSW 05:43:59 10° S
Cosmos 292 Rocket 4.3 05:36:09 21° SW 05:38:59 41° WNW 05:43:34 10° N
Cosmos 2322 Rocket 2.1 05:34:23 10° NNW 05:40:02 77° WSW 05:45:37 10° SSE
Cosmos 1707 2.6 05:36:11 10° S 05:40:02 81° W 05:43:56 10° N
Cosmos 836 Rocket 4.4 05:34:56 11° SSW 05:40:03 80° WNW 05:45:17 10° NNE
Cosmos 1833 4.3 05:34:21 10° SSW 05:40:10 86° ESE 05:45:59 10° NNE
Aureole 2 Rocket 4.4 05:37:09 10° N 05:40:39 34° ENE 05:43:55 10° SE
ADEOS II 3.3 05:38:54 10° NNW 05:43:03 24° WNW 05:45:42 17° WSW
OAO 3 Rocket 3.9 05:41:40 19° WSW 05:44:15 33° SSW 05:48:30 10° SE
Cosmos 1953 2.4 05:41:03 10° NNW 05:45:02 57° W 05:49:00 10° S
Cosmos 2298 Rocket 4.5 05:40:09 10° NW 05:45:04 39° W 05:49:56 10° SSW
PAYLOAD B 4.4 05:39:46 10° NNE 05:45:24 80° ESE 05:51:00 10° S
USA 238 DEB 4.4 05:43:52 16° WSW 05:48:46 38° NW 05:55:11 10° NNE
USA 238 4.4 05:43:57 16° WSW 05:48:52 39° NW 05:55:18 10° NNE
ERBS 3.3 05:46:01 11° SSW 05:49:09 44° SE 05:52:23 10° NE
CZ-4B R/B 4.1 05:45:38 10° NNE 05:49:26 70° ESE 05:53:22 10° S
PSLV R/B 4.0 05:45:43 10° N 05:49:27 48° WNW 05:53:04 10° SSW
PSLV R/B 4.3 05:46:40 10° N 05:50:27 33° WNW 05:53:38 13° SW
Cosmos 372 Rocket 4.3 05:46:41 10° NNW 05:51:54 72° ENE 05:57:02 10° SSE
Meteor 1-31 Rocket 2.8 05:49:02 10° NNE 05:52:56 83° E 05:56:46 10° S
Cosmos 1378 3.9 05:53:06 13° SW 05:56:01 32° W 05:59:26 10° NNW
Cosmos 1812 Rocket 3.7 05:52:46 10° NNW 05:57:08 53° W 06:01:27 10° S
CZ-4B R/B 3.2 05:56:42 10° NNE 06:02:18 87° WNW 06:07:45 10° SSW
CRYOSAT 2 4.4 05:59:42 10° S 06:04:28 63° W 06:09:18 10° NNW
Cosmos 1758 Rocket 3.5 06:00:23 10° S 06:04:41 89° W 06:09:02 10° N
Cosmos 44 3.8 06:00:25 10° NW 06:05:28 46° WSW 06:10:36 10° S
Okean-O 4.5 06:14:33 10° NNE 06:18:38 35° E 06:22:40 10° SSE
Meteor 1-28 Rocket 3.4 06:15:06 10° S 06:18:42 47° W 06:22:20 10° NNW
Cosmos 2322 4.2 06:13:13 10° NNW 06:18:56 69° ENE 06:24:37 10° SSE
Meteor 2-5 Rocket 3.7 06:15:20 10° SSW 06:20:48 66° W 06:26:20 10° N
